AZU2459 SBFN-SBRF

Flight info

Callsign AZU2459
Flight time 0h 54m
Altitude 30000
Route TOMEK DCT UBRUT
Aircraft E195/M-SDE3GILORVW/S

Departure

Time 2026-04-17 00:06
Airport Fernando de Noronha Airport (SBFN)

Arrival

Time 2026-04-17 01:01
Airport Recife/Guararapes - Gilberto Freyre International Airport (SBRF)
Time Latitude Longitude Altitude Speed Heading
2026-04-16 23:38 -3.85588 -32.42911 0 ft 0 kts 139°
2026-04-16 23:54 -3.85593 -32.42908 122 ft 0 kts 184°
2026-04-16 23:57 -3.85580 -32.42907 168 ft 4 kts 200°
2026-04-16 23:57 -3.85561 -32.42893 120 ft 4 kts 253°
2026-04-16 23:57 -3.85558 -32.42867 168 ft 4 kts 273°
2026-04-16 23:58 -3.85558 -32.42858 168 ft 2 kts 274°
2026-04-17 00:03 -3.85554 -32.42885 168 ft 7 kts 281°
2026-04-17 00:03 -3.85515 -32.42935 168 ft 12 kts 323°
2026-04-17 00:03 -3.85491 -32.42952 168 ft 0 kts 325°
2026-04-17 00:04 -3.85484 -32.42956 169 ft 4 kts 325°
2026-04-17 00:04 -3.85450 -32.42981 169 ft 7 kts 325°
2026-04-17 00:04 -3.85431 -32.42994 170 ft 0 kts 325°
2026-04-17 00:05 -3.85419 -32.42999 170 ft 2 kts 342°
2026-04-17 00:05 -3.85399 -32.42991 170 ft 4 kts 47°
2026-04-17 00:05 -3.85396 -32.42975 169 ft 0 kts 90°
2026-04-17 00:05 -3.85401 -32.42915 167 ft 38 kts 96°
2026-04-17 00:06 -3.85441 -32.42369 166 ft 117 kts 94°
2026-04-17 00:06 -3.85523 -32.41321 274 ft 176 kts 94°
2026-04-17 00:06 -3.85585 -32.40072 1199 ft 183 kts 92°
2026-04-17 00:06 -3.85676 -32.38727 1945 ft 214 kts 98°
2026-04-17 00:07 -3.85997 -32.37130 2633 ft 240 kts 110°
2026-04-17 00:07 -3.86933 -32.35852 4224 ft 238 kts 142°
2026-04-17 00:07 -3.88537 -32.35262 5311 ft 260 kts 175°
2026-04-17 00:07 -3.90374 -32.35578 6493 ft 275 kts 194°
2026-04-17 00:08 -3.92219 -32.36173 7822 ft 282 kts 197°
2026-04-17 00:08 -3.94092 -32.36817 9090 ft 288 kts 198°
2026-04-17 00:08 -3.96005 -32.37486 10278 ft 296 kts 198°
2026-04-17 00:08 -3.98022 -32.38144 11151 ft 313 kts 193°
2026-04-17 00:09 -4.00176 -32.38688 12070 ft 325 kts 193°
2026-04-17 00:09 -4.02362 -32.39236 13161 ft 331 kts 192°
2026-04-17 00:09 -4.04617 -32.39788 14205 ft 337 kts 193°
2026-04-17 00:09 -4.06918 -32.40355 15209 ft 343 kts 193°
2026-04-17 00:10 -4.09257 -32.40932 16167 ft 349 kts 193°
2026-04-17 00:10 -4.11633 -32.41516 17097 ft 354 kts 193°
2026-04-17 00:10 -4.14029 -32.42164 17963 ft 360 kts 200°
2026-04-17 00:10 -4.16159 -32.43492 18778 ft 366 kts 224°
2026-04-17 00:11 -4.17626 -32.45575 19597 ft 370 kts 246°
2026-04-17 00:11 -4.18528 -32.48005 20400 ft 374 kts 251°
2026-04-17 00:11 -4.19351 -32.50491 21138 ft 379 kts 251°
2026-04-17 00:11 -4.20182 -32.52969 21871 ft 382 kts 250°
2026-04-17 00:12 -4.21081 -32.55489 22574 ft 386 kts 249°
2026-04-17 00:12 -4.22056 -32.58002 23267 ft 389 kts 248°
2026-04-17 00:12 -4.23112 -32.60510 23901 ft 393 kts 246°
2026-04-17 00:12 -4.24475 -32.62889 24468 ft 397 kts 231°
2026-04-17 00:13 -4.26381 -32.64899 25068 ft 400 kts 223°
2026-04-17 00:13 -4.28525 -32.66694 25627 ft 404 kts 218°
2026-04-17 00:13 -4.30776 -32.68395 26191 ft 407 kts 216°
2026-04-17 00:13 -4.33131 -32.69978 26712 ft 410 kts 210°
2026-04-17 00:14 -4.35604 -32.71419 27237 ft 412 kts 210°
2026-04-17 00:14 -4.38067 -32.72841 27704 ft 415 kts 209°
2026-04-17 00:14 -4.40583 -32.74280 28182 ft 419 kts 209°
2026-04-17 00:14 -4.43124 -32.75727 28605 ft 422 kts 209°
2026-04-17 00:15 -4.45688 -32.77193 29019 ft 426 kts 209°
2026-04-17 00:15 -4.48274 -32.78668 29403 ft 430 kts 209°
2026-04-17 00:15 -4.50745 -32.80378 29736 ft 435 kts 219°
2026-04-17 00:15 -4.52932 -32.82516 29912 ft 445 kts 227°
2026-04-17 00:16 -4.54961 -32.84850 29980 ft 455 kts 229°
2026-04-17 00:16 -4.57088 -32.87252 30009 ft 467 kts 227°
2026-04-17 00:16 -4.59354 -32.89635 30010 ft 478 kts 225°
2026-04-17 00:16 -4.61766 -32.91981 30012 ft 489 kts 223°
2026-04-17 00:17 -4.64313 -32.94295 30021 ft 499 kts 221°
2026-04-17 00:17 -4.66934 -32.96561 29993 ft 488 kts 220°
2026-04-17 00:17 -4.69467 -32.98703 29976 ft 465 kts 220°
2026-04-17 00:17 -4.71901 -33.00741 29967 ft 448 kts 220°
2026-04-17 00:18 -4.74273 -33.02718 29977 ft 452 kts 220°
2026-04-17 00:18 -4.79157 -33.06771 30008 ft 457 kts 219°
2026-04-17 00:19 -4.84204 -33.10616 29998 ft 456 kts 215°
2026-04-17 00:19 -4.89416 -33.14240 29994 ft 456 kts 214°
2026-04-17 00:20 -4.94649 -33.17841 30001 ft 456 kts 214°
2026-04-17 00:20 -4.99844 -33.21414 30001 ft 456 kts 214°
2026-04-17 00:21 -5.05075 -33.25014 29997 ft 456 kts 214°
2026-04-17 00:21 -5.10306 -33.28615 30000 ft 459 kts 214°
2026-04-17 00:22 -5.18148 -33.34018 30002 ft 455 kts 213°
2026-04-17 00:22 -5.23343 -33.37595 30000 ft 450 kts 213°
2026-04-17 00:23 -5.28477 -33.41131 30000 ft 445 kts 213°
2026-04-17 00:23 -5.33558 -33.44633 30000 ft 441 kts 214°
2026-04-17 00:24 -5.38567 -33.48088 30000 ft 439 kts 214°
2026-04-17 00:24 -5.43597 -33.51557 30000 ft 440 kts 215°
2026-04-17 00:25 -5.48654 -33.55045 29999 ft 443 kts 216°
2026-04-17 00:25 -5.53754 -33.58564 30000 ft 447 kts 216°
2026-04-17 00:26 -5.58916 -33.62124 30001 ft 453 kts 216°
2026-04-17 00:26 -5.64097 -33.65700 30000 ft 456 kts 215°
2026-04-17 00:27 -5.69326 -33.69308 29999 ft 456 kts 215°
2026-04-17 00:27 -5.74553 -33.72918 30001 ft 456 kts 215°
2026-04-17 00:28 -5.79781 -33.76530 30001 ft 456 kts 215°
2026-04-17 00:28 -5.85008 -33.80140 30001 ft 456 kts 215°
2026-04-17 00:29 -5.90204 -33.83728 30000 ft 456 kts 215°
2026-04-17 00:29 -5.95432 -33.87340 29999 ft 456 kts 215°
2026-04-17 00:30 -6.00656 -33.90952 30001 ft 456 kts 216°
2026-04-17 00:30 -6.05883 -33.94566 30000 ft 456 kts 216°
2026-04-17 00:31 -6.11110 -33.98182 30001 ft 456 kts 215°
2026-04-17 00:31 -6.16287 -34.01761 30000 ft 453 kts 216°
2026-04-17 00:32 -6.18873 -34.03551 29887 ft 452 kts 216°
2026-04-17 00:32 -6.21464 -34.05344 29182 ft 450 kts 216°
2026-04-17 00:32 -6.24027 -34.07118 28503 ft 445 kts 216°
2026-04-17 00:32 -6.26560 -34.08871 27843 ft 439 kts 216°
2026-04-17 00:33 -6.29059 -34.10600 27187 ft 434 kts 216°
2026-04-17 00:33 -6.31526 -34.12308 26540 ft 428 kts 216°
2026-04-17 00:33 -6.33964 -34.13995 25897 ft 422 kts 215°
2026-04-17 00:33 -6.36332 -34.15637 25285 ft 417 kts 215°
2026-04-17 00:34 -6.38704 -34.17279 24658 ft 411 kts 215°
2026-04-17 00:34 -6.41043 -34.18898 24043 ft 406 kts 215°
2026-04-17 00:34 -6.43356 -34.20500 23434 ft 401 kts 215°
2026-04-17 00:34 -6.45634 -34.22079 22836 ft 395 kts 215°
2026-04-17 00:35 -6.47885 -34.23636 22245 ft 390 kts 214°
2026-04-17 00:35 -6.50106 -34.25177 21662 ft 386 kts 214°
2026-04-17 00:35 -6.52306 -34.26700 21088 ft 381 kts 214°
2026-04-17 00:35 -6.54476 -34.28206 20514 ft 378 kts 214°
2026-04-17 00:36 -6.56607 -34.29681 19957 ft 376 kts 214°
2026-04-17 00:36 -6.58755 -34.31172 19391 ft 374 kts 214°
2026-04-17 00:36 -6.60887 -34.32648 18844 ft 371 kts 214°
2026-04-17 00:36 -6.62998 -34.34113 18283 ft 367 kts 214°
2026-04-17 00:37 -6.65087 -34.35560 17738 ft 363 kts 214°
2026-04-17 00:37 -6.67160 -34.36999 17194 ft 360 kts 213°
2026-04-17 00:37 -6.69217 -34.38424 16655 ft 359 kts 213°
2026-04-17 00:37 -6.71263 -34.39843 16273 ft 355 kts 213°
2026-04-17 00:38 -6.73272 -34.41239 16030 ft 357 kts 213°
2026-04-17 00:38 -6.75319 -34.42657 15783 ft 358 kts 213°
2026-04-17 00:38 -6.77367 -34.44077 15530 ft 357 kts 213°
2026-04-17 00:38 -6.79407 -34.45496 15282 ft 356 kts 213°
2026-04-17 00:39 -6.81444 -34.46907 15027 ft 355 kts 213°
2026-04-17 00:39 -6.83471 -34.48316 14779 ft 354 kts 213°
2026-04-17 00:39 -6.85495 -34.49719 14528 ft 353 kts 213°
2026-04-17 00:39 -6.87513 -34.51119 14279 ft 352 kts 213°
2026-04-17 00:40 -6.89528 -34.52520 14030 ft 351 kts 213°
2026-04-17 00:40 -6.91536 -34.53913 13782 ft 350 kts 213°
2026-04-17 00:40 -6.93538 -34.55305 13534 ft 349 kts 213°
2026-04-17 00:40 -6.95510 -34.56673 13287 ft 348 kts 213°
2026-04-17 00:41 -6.97503 -34.58057 13028 ft 347 kts 214°
2026-04-17 00:41 -6.99490 -34.59437 12797 ft 346 kts 214°
2026-04-17 00:41 -7.01469 -34.60814 12553 ft 345 kts 213°
2026-04-17 00:41 -7.03442 -34.62184 12306 ft 344 kts 213°
2026-04-17 00:42 -7.05411 -34.63551 12065 ft 343 kts 214°
2026-04-17 00:42 -7.07375 -34.64916 11822 ft 342 kts 214°
2026-04-17 00:42 -7.09330 -34.66273 11581 ft 341 kts 214°
2026-04-17 00:42 -7.11247 -34.67609 11331 ft 336 kts 214°
2026-04-17 00:43 -7.13133 -34.68919 11095 ft 324 kts 214°
2026-04-17 00:43 -7.14961 -34.70191 10854 ft 314 kts 214°
2026-04-17 00:43 -7.16742 -34.71428 10614 ft 307 kts 214°
2026-04-17 00:43 -7.18477 -34.72633 10386 ft 299 kts 214°
2026-04-17 00:44 -7.20177 -34.73817 10178 ft 296 kts 214°
2026-04-17 00:44 -7.21875 -34.74996 10089 ft 298 kts 214°
2026-04-17 00:44 -7.23584 -34.76187 10045 ft 299 kts 214°
2026-04-17 00:44 -7.25277 -34.77363 10013 ft 300 kts 214°
2026-04-17 00:45 -7.27003 -34.78565 9616 ft 302 kts 214°
2026-04-17 00:45 -7.28728 -34.79764 9222 ft 300 kts 214°
2026-04-17 00:45 -7.30437 -34.80955 8821 ft 298 kts 214°
2026-04-17 00:45 -7.32132 -34.82133 8432 ft 295 kts 214°
2026-04-17 00:46 -7.33817 -34.83307 8042 ft 293 kts 214°
2026-04-17 00:46 -7.35492 -34.84472 7654 ft 291 kts 214°
2026-04-17 00:46 -7.37149 -34.85625 7276 ft 289 kts 214°
2026-04-17 00:46 -7.38779 -34.86759 6899 ft 287 kts 213°
2026-04-17 00:47 -7.40417 -34.87900 6524 ft 285 kts 213°
2026-04-17 00:47 -7.42043 -34.89031 6181 ft 282 kts 213°
2026-04-17 00:47 -7.43634 -34.90141 6081 ft 276 kts 213°
2026-04-17 00:47 -7.45224 -34.91247 6044 ft 280 kts 213°
2026-04-17 00:48 -7.46830 -34.92366 6033 ft 281 kts 213°
2026-04-17 00:48 -7.48436 -34.93484 6025 ft 280 kts 213°
2026-04-17 00:48 -7.50041 -34.94601 6023 ft 280 kts 213°
2026-04-17 00:48 -7.51645 -34.95720 6029 ft 281 kts 213°
2026-04-17 00:49 -7.53227 -34.96822 6029 ft 280 kts 213°
2026-04-17 00:49 -7.54831 -34.97940 6027 ft 280 kts 213°
2026-04-17 00:49 -7.56433 -34.99056 6025 ft 280 kts 213°
2026-04-17 00:49 -7.58036 -35.00173 6029 ft 280 kts 213°
2026-04-17 00:50 -7.59640 -35.01291 6028 ft 280 kts 213°
2026-04-17 00:50 -7.61246 -35.02409 5965 ft 282 kts 213°
2026-04-17 00:50 -7.62866 -35.03541 5579 ft 283 kts 213°
2026-04-17 00:50 -7.64480 -35.04665 5203 ft 281 kts 213°
2026-04-17 00:51 -7.66177 -35.05605 4825 ft 277 kts 195°
2026-04-17 00:51 -7.68038 -35.05773 4547 ft 269 kts 177°
2026-04-17 00:51 -7.69870 -35.05618 4390 ft 259 kts 171°
2026-04-17 00:51 -7.71622 -35.05348 4227 ft 251 kts 169°
2026-04-17 00:52 -7.73311 -35.05033 4047 ft 243 kts 167°
2026-04-17 00:52 -7.74930 -35.04654 3884 ft 235 kts 162°
2026-04-17 00:52 -7.76469 -35.04177 3729 ft 229 kts 161°
2026-04-17 00:52 -7.77967 -35.03699 3559 ft 222 kts 161°
2026-04-17 00:53 -7.79420 -35.03233 3406 ft 217 kts 161°
2026-04-17 00:53 -7.80823 -35.02781 3262 ft 212 kts 161°
2026-04-17 00:53 -7.82208 -35.02332 3121 ft 206 kts 161°
2026-04-17 00:53 -7.83552 -35.01924 3038 ft 197 kts 163°
2026-04-17 00:54 -7.84836 -35.01545 2992 ft 189 kts 160°
2026-04-17 00:54 -7.86056 -35.01130 2981 ft 181 kts 160°
2026-04-17 00:54 -7.87246 -35.00739 3029 ft 180 kts 161°
2026-04-17 00:54 -7.88433 -35.00349 3056 ft 175 kts 160°
2026-04-17 00:55 -7.89540 -34.99979 2997 ft 162 kts 160°
2026-04-17 00:55 -7.90603 -34.99612 2794 ft 161 kts 159°
2026-04-17 00:55 -7.91638 -34.99234 2587 ft 158 kts 158°
2026-04-17 00:55 -7.92657 -34.98855 2492 ft 156 kts 159°
2026-04-17 00:56 -7.93699 -34.98498 2428 ft 160 kts 160°
2026-04-17 00:56 -7.94749 -34.98132 2408 ft 160 kts 161°
2026-04-17 00:56 -7.95828 -34.97823 2296 ft 162 kts 164°
2026-04-17 00:56 -7.96897 -34.97523 2280 ft 159 kts 162°
2026-04-17 00:57 -7.97943 -34.97179 2209 ft 155 kts 160°
2026-04-17 00:57 -7.98964 -34.96820 1888 ft 156 kts 159°
2026-04-17 00:57 -7.99969 -34.96466 1649 ft 153 kts 161°
2026-04-17 00:57 -8.00974 -34.96145 1388 ft 151 kts 162°
2026-04-17 00:58 -8.01982 -34.95843 1092 ft 150 kts 162°
2026-04-17 00:58 -8.02960 -34.95547 913 ft 145 kts 161°
2026-04-17 00:58 -8.03893 -34.95222 805 ft 138 kts 160°
2026-04-17 00:58 -8.04787 -34.94907 714 ft 135 kts 160°
2026-04-17 00:59 -8.05685 -34.94601 577 ft 136 kts 161°
2026-04-17 00:59 -8.06575 -34.94319 522 ft 135 kts 162°
2026-04-17 00:59 -8.07449 -34.94038 688 ft 132 kts 161°
2026-04-17 00:59 -8.08338 -34.93728 653 ft 138 kts 160°
2026-04-17 01:00 -8.09248 -34.93424 452 ft 138 kts 161°
2026-04-17 01:00 -8.10150 -34.93123 252 ft 135 kts 161°
2026-04-17 01:00 -8.11049 -34.92832 102 ft 137 kts 161°
2026-04-17 01:00 -8.11942 -34.92542 43 ft 128 kts 161°
2026-04-17 01:01 -8.12685 -34.92300 45 ft 97 kts 162°
2026-04-17 01:01 -8.13161 -34.92138 40 ft 35 kts 153°
2026-04-17 01:01 -8.13259 -34.92052 39 ft 12 kts 132°
2026-04-17 01:01 -8.13288 -34.91994 40 ft 0 kts 82°
2026-04-17 01:02 -8.13288 -34.91992 40 ft 0 kts 75°
2026-04-17 01:02 -8.13286 -34.91989 40 ft 1 kts 71°
2026-04-17 01:02 -8.13279 -34.91981 40 ft 3 kts 52°
2026-04-17 01:02 -8.13261 -34.91966 40 ft 4 kts 32°
2026-04-17 01:03 -8.13243 -34.91943 40 ft 4 kts 63°
2026-04-17 01:03 -8.13234 -34.91914 40 ft 5 kts 71°
2026-04-17 01:03 -8.13229 -34.91899 40 ft 2 kts 73°
2026-04-17 01:03 -8.13225 -34.91886 41 ft 2 kts 72°
2026-04-17 01:04 -8.13225 -34.91885 41 ft 0 kts 72°